,,,PA_Meas_PMT16A,,PR_Meas_QMR101_102,,RH_Meas_QMH101,,SR_Meas_QMS101,,TA_Meas_QMH101,,GenWind,,GenWind,
date,time,status,PA,status,PR,status,RH,status,SR,status,TA,status,DirAvg,status,SpdAvg,
2011-06-21, 00:00:04,VALID,1001.3,VALID,0,VALID,89.6938,VALID,0,VALID,22.6087,VALID,11,VALID,0.421875,
2011-06-21, 00:01:04,VALID,1001.31,VALID,0,VALID,89.9761,VALID,0,VALID,22.5696,VALID,2,VALID,1.02578,
2011-06-21, 00:02:04,VALID,1001.31,VALID,0,VALID,90.1516,VALID,0,VALID,22.5501,VALID,2,VALID,0.646094,
2011-06-21, 00:03:04,VALID,1001.32,VALID,0,VALID,90.4263,VALID,0,VALID,22.5306,VALID,2,VALID,0.604688,
2011-06-21, 00:04:04,VALID,1001.34,VALID,0,VALID,90.6475,VALID,0,VALID,22.5306,VALID,2,VALID,0.305078,
2011-06-21, 00:05:04,VALID,1001.3,VALID,0,VALID,90.7849,VALID,0,VALID,22.5501,VALID,2,VALID,0.214844,
2011-06-21, 00:06:04,VALID,1001.3,VALID,0,VALID,90.8383,VALID,0,VALID,22.5501,VALID,2,VALID,0.445313,
2011-06-21, 00:07:04,VALID,1001.31,VALID,0,VALID,90.8611,VALID,0,VALID,22.5501,VALID,2,VALID,0.609766,
2011-06-21, 00:08:04,VALID,1001.28,VALID,0,VALID,90.8154,VALID,0,VALID,22.5501,VALID,2,VALID,0.35625,
2011-06-21, 00:09:04,VALID,1001.27,VALID,0,VALID,90.678,VALID,0,VALID,22.5696,VALID,2,VALID,0.364453,
2011-06-21, 00:10:04,VALID,1001.27,VALID,0,VALID,90.6323,VALID,0,VALID,22.5696,VALID,2,VALID,0.362891,
2011-06-21, 00:11:04,VALID,1001.23,VALID,0,VALID,90.5712,VALID,0,VALID,22.5892,VALID,2,VALID,0.330078,
2011-06-21, 00:12:04,VALID,1001.24,VALID,0,VALID,90.5407,VALID,0,VALID,22.5892,VALID,2,VALID,0.0570313,
2011-06-21, 00:13:04,VALID,1001.18,VALID,0,VALID,90.5636,VALID,0,VALID,22.5501,VALID,2,VALID,0.321875,
2011-06-21, 00:14:04,VALID,1001.18,VALID,0,VALID,90.5941,VALID,0,VALID,22.5501,VALID,2,VALID,0.557422,
2011-06-21, 00:15:04,VALID,1001.16,VALID,0,VALID,90.6628,VALID,0,VALID,22.5501,VALID,2,VALID,0.655859,
2011-06-21, 00:16:04,VALID,1001.12,VALID,0,VALID,90.678,VALID,0,VALID,22.5111,VALID,2,VALID,0.674609,
2011-06-21, 00:17:04,VALID,1001.12,VALID,0,VALID,90.7238,VALID,0,VALID,22.5111,VALID,2,VALID,0.732422,
2011-06-21, 00:18:04,VALID,1001.09,VALID,0,VALID,90.7849,VALID,0,VALID,22.5111,VALID,2,VALID,0.557813,
2011-06-21, 00:19:04,VALID,1001.11,VALID,0,VALID,90.823,VALID,0,VALID,22.4721,VALID,2,VALID,0.541016,
2011-06-21, 00:20:04,VALID,1001.08,VALID,0,VALID,90.9069,VALID,0,VALID,22.4314,VALID,2,VALID,0.521875,
2011-06-21, 00:21:04,VALID,1001.09,VALID,0,VALID,91.029,VALID,0,VALID,22.4526,VALID,2,VALID,0.192969,
2011-06-21, 00:22:04,VALID,1001.07,VALID,0,VALID,91.0977,VALID,0,VALID,22.4136,VALID,2,VALID,0,
2011-06-21, 00:23:04,VALID,1001.05,VALID,0,VALID,91.2197,VALID,0,VALID,22.4136,VALID,2,VALID,0,
2011-06-21, 00:24:04,VALID,1001.05,VALID,0,VALID,91.3418,VALID,0,VALID,22.3746,VALID,2,VALID,0,
2011-06-21, 00:25:04,VALID,1001.04,VALID,0,VALID,91.4257,VALID,0,VALID,22.3746,VALID,2,VALID,0,
2011-06-21, 00:26:04,VALID,1001.05,VALID,0,VALID,91.5173,VALID,0,VALID,22.3551,VALID,2,VALID,0,
2011-06-21, 00:27:04,VALID,1001.03,VALID,0,VALID,91.6241,VALID,0,VALID,22.3551,VALID,2,VALID,0.519141,
2011-06-21, 00:28:04,VALID,1001.01,VALID,0,VALID,91.6928,VALID,0,VALID,22.3551,VALID,2,VALID,0.1625,
2011-06-21, 00:29:04,VALID,1001.03,VALID,0,VALID,91.7385,VALID,0.112286,VALID,22.3356,VALID,2,VALID,0,
2011-06-21, 00:30:04,VALID,1001.03,VALID,0,VALID,91.7691,VALID,0,VALID,22.3356,VALID,2,VALID,0.284766,
2011-06-21, 00:31:04,VALID,1001.04,VALID,0,VALID,91.7767,VALID,0,VALID,22.3356,VALID,2,VALID,0.362891,
2011-06-21, 00:32:04,VALID,1001.04,VALID,0,VALID,91.8072,VALID,0,VALID,22.3144,VALID,2,VALID,0.407031,
2011-06-21, 00:33:04,VALID,1001.03,VALID,0,VALID,91.8225,VALID,0,VALID,22.3356,VALID,2,VALID,0.524219,
2011-06-21, 00:34:04,VALID,1001.07,VALID,0,VALID,91.8377,VALID,0,VALID,22.3356,VALID,2,VALID,0.577344,
2011-06-21, 00:35:04,VALID,1001.04,VALID,0,VALID,91.8911,VALID,0,VALID,22.3339,VALID,2,VALID,0.649219,
2011-06-21, 00:36:04,VALID,1001.03,VALID,0,VALID,91.8835,VALID,0,VALID,22.3356,VALID,2,VALID,0.723828,
2011-06-21, 00:37:04,VALID,1001.01,VALID,0,VALID,91.8835,VALID,0,VALID,22.2966,VALID,2,VALID,0.523828,
2011-06-21, 00:38:04,VALID,1001,VALID,0,VALID,91.9217,VALID,0,VALID,22.2771,VALID,2,VALID,0.317187,
2011-06-21, 00:39:04,VALID,1000.97,VALID,0,VALID,91.9827,VALID,0,VALID,22.2788,VALID,2,VALID,0.300781,
2011-06-21, 00:40:04,VALID,1000.96,VALID,0,VALID,92.0514,VALID,0,VALID,22.2381,VALID,2,VALID,0.452344,
2011-06-21, 00:41:04,VALID,1000.97,VALID,0,VALID,92.1277,VALID,0,VALID,22.2381,VALID,2,VALID,0.448438,
2011-06-21, 00:42:04,VALID,1000.93,VALID,0,VALID,92.2421,VALID,0,VALID,22.2186,VALID,21,VALID,0.671094,
2011-06-21, 00:43:04,VALID,1000.89,VALID,0,VALID,92.2726,VALID,0,VALID,22.1795,VALID,21,VALID,0.305859,
2011-06-21, 00:44:04,VALID,1000.88,VALID,0,VALID,92.2955,VALID,0,VALID,22.16,VALID,21,VALID,0.0402344,
2011-06-21, 00:45:04,VALID,1000.87,VALID,0,VALID,92.3337,VALID,0,VALID,22.1405,VALID,21,VALID,0,
2011-06-21, 00:46:04,VALID,1000.86,VALID,0,VALID,92.3871,VALID,0,VALID,22.1405,VALID,21,VALID,0,
2011-06-21, 00:47:04,VALID,1000.85,VALID,0,VALID,92.4328,VALID,0,VALID,22.121,VALID,21,VALID,0,
2011-06-21, 00:48:04,VALID,1000.84,VALID,0,VALID,92.4786,VALID,0,VALID,22.121,VALID,21,VALID,0,
2011-06-21, 00:49:04,VALID,1000.82,VALID,0,VALID,92.532,VALID,0,VALID,22.1015,VALID,21,VALID,0,
2011-06-21, 00:50:04,VALID,1000.78,VALID,0,VALID,92.5626,VALID,0,VALID,22.082,VALID,21,VALID,0,
2011-06-21, 00:51:04,VALID,1000.75,VALID,0,VALID,92.616,VALID,0,VALID,22.082,VALID,21,VALID,0,
2011-06-21, 00:52:04,VALID,1000.76,VALID,0,VALID,92.6236,VALID,0,VALID,22.0625,VALID,21,VALID,0,
2011-06-21, 00:53:04,VALID,1000.76,VALID,0,VALID,92.677,VALID,0,VALID,22.0625,VALID,21,VALID,0,
2011-06-21, 00:54:04,VALID,1000.77,VALID,0,VALID,92.6999,VALID,0,VALID,22.0625,VALID,21,VALID,0,
2011-06-21, 00:55:04,VALID,1000.74,VALID,0,VALID,92.7304,VALID,0,VALID,22.043,VALID,21,VALID,0,
2011-06-21, 00:56:04,VALID,1000.78,VALID,0,VALID,92.7609,VALID,0,VALID,22.0235,VALID,21,VALID,0,
2011-06-21, 00:57:04,VALID,1000.76,VALID,0,VALID,92.7685,VALID,0,VALID,21.9845,VALID,21,VALID,0,
2011-06-21, 00:58:04,VALID,1000.77,VALID,0,VALID,92.7762,VALID,0.112286,VALID,22.004,VALID,21,VALID,0,
2011-06-21, 00:59:04,VALID,1000.76,VALID,0,VALID,92.8296,VALID,0.112286,VALID,22.0235,VALID,21,VALID,0,
2011-06-21, 01:00:04,VALID,1000.72,VALID,0,VALID,92.8754,VALID,0,VALID,22.0235,VALID,21,VALID,0,
2011-06-21, 01:01:04,VALID,1000.72,VALID,0,VALID,92.9211,VALID,0,VALID,22.004,VALID,21,VALID,0,
2011-06-21, 01:02:04,VALID,1000.71,VALID,0,VALID,92.9517,VALID,0,VALID,22.004,VALID,21,VALID,0,
2011-06-21, 01:03:04,VALID,1000.71,VALID,0,VALID,93.0051,VALID,0,VALID,22.004,VALID,21,VALID,0,
2011-06-21, 01:04:04,VALID,1000.67,VALID,0,VALID,93.028,VALID,0,VALID,22.004,VALID,21,VALID,0,
2011-06-21, 01:05:04,VALID,1000.68,VALID,0,VALID,93.0737,VALID,0,VALID,22.004,VALID,21,VALID,0,
2011-06-21, 01:06:04,VALID,1000.65,VALID,0,VALID,93.1195,VALID,0,VALID,22.0235,VALID,21,VALID,0,
2011-06-21, 01:07:04,VALID,1000.64,VALID,0,VALID,93.1729,VALID,0,VALID,22.0235,VALID,21,VALID,0,
2011-06-21, 01:08:04,VALID,1000.68,VALID,0,VALID,93.1729,VALID,0,VALID,22.0235,VALID,21,VALID,0,
2011-06-21, 01:09:05,VALID,1000.66,VALID,0,VALID,93.1882,VALID,0,VALID,22.004,VALID,21,VALID,0,
2011-06-21, 01:10:05,VALID,1000.69,VALID,0,VALID,93.2263,VALID,0,VALID,22.004,VALID,21,VALID,0,
2011-06-21, 01:11:05,VALID,1000.68,VALID,0,VALID,93.234,VALID,0,VALID,21.9845,VALID,352,VALID,0,
2011-06-21, 01:12:05,VALID,1000.7,VALID,0,VALID,93.2721,VALID,0,VALID,21.965,VALID,352,VALID,0,
2011-06-21, 01:13:05,VALID,1000.72,VALID,0,VALID,93.2645,VALID,0,VALID,21.965,VALID,352,VALID,0,
2011-06-21, 01:14:05,VALID,1000.71,VALID,0,VALID,93.2721,VALID,0,VALID,21.9455,VALID,352,VALID,0.650391,
2011-06-21, 01:15:05,VALID,1000.73,VALID,0,VALID,93.2568,VALID,0,VALID,21.9455,VALID,352,VALID,0.745703,
2011-06-21, 01:16:05,VALID,1000.74,VALID,0,VALID,93.2874,VALID,0,VALID,21.9048,VALID,359,VALID,0.660156,
2011-06-21, 01:17:05,VALID,1000.73,VALID,0,VALID,93.3179,VALID,0,VALID,21.9065,VALID,5,VALID,0.694922,
2011-06-21, 01:18:05,VALID,1000.79,VALID,0,VALID,93.2874,VALID,0,VALID,21.926,VALID,14,VALID,0.728906,
2011-06-21, 01:19:05,VALID,1000.76,VALID,0,VALID,93.3331,VALID,0,VALID,21.926,VALID,20,VALID,0.858203,
2011-06-21, 01:20:05,VALID,1000.78,VALID,0,VALID,93.3331,VALID,0,VALID,21.926,VALID,34,VALID,0.842578,
2011-06-21, 01:21:05,VALID,1000.76,VALID,0,VALID,93.3408,VALID,0.112286,VALID,21.9455,VALID,41,VALID,1.0082,
2011-06-21, 01:22:05,VALID,1000.75,VALID,0,VALID,93.3713,VALID,0,VALID,21.965,VALID,40,VALID,1.14922,
2011-06-21, 01:23:05,VALID,1000.74,VALID,0,VALID,93.3484,VALID,0,VALID,21.9845,VALID,40,VALID,1.01875,
2011-06-21, 01:24:05,VALID,1000.76,VALID,0,VALID,93.356,VALID,0,VALID,22.0235,VALID,40,VALID,0.679297,
2011-06-21, 01:25:05,VALID,1000.78,VALID,0,VALID,93.3484,VALID,0,VALID,21.9828,VALID,40,VALID,0.575,
2011-06-21, 01:26:05,VALID,1000.76,VALID,0,VALID,93.3331,VALID,0,VALID,22.0023,VALID,40,VALID,0.471094,
2011-06-21, 01:27:05,VALID,1000.77,VALID,0,VALID,93.3331,VALID,0,VALID,22.0218,VALID,40,VALID,0.34375,
2011-06-21, 01:28:05,VALID,1000.73,VALID,0,VALID,93.3179,VALID,0,VALID,22.0235,VALID,40,VALID,0.152734,
2011-06-21, 01:29:05,VALID,1000.73,VALID,0,VALID,93.3026,VALID,0,VALID,22.0235,VALID,40,VALID,0.239844,
2011-06-21, 01:30:05,VALID,1000.73,VALID,0,VALID,93.2874,VALID,0,VALID,22.0235,VALID,40,VALID,0.000390625,
2011-06-21, 01:31:05,VALID,1000.72,VALID,0,VALID,93.2721,VALID,0.112286,VALID,22.043,VALID,40,VALID,0.25625,
2011-06-21, 01:32:05,VALID,1000.73,VALID,0,VALID,93.2721,VALID,0,VALID,22.0625,VALID,40,VALID,0.109766,
2011-06-21, 01:33:05,VALID,1000.7,VALID,0,VALID,93.234,VALID,0,VALID,22.0625,VALID,40,VALID,0,
2011-06-21, 01:34:05,VALID,1000.69,VALID,0,VALID,93.2263,VALID,0,VALID,22.0625,VALID,40,VALID,0,
2011-06-21, 01:35:05,VALID,1000.68,VALID,0,VALID,93.2263,VALID,0,VALID,22.1015,VALID,40,VALID,0,
2011-06-21, 01:36:05,VALID,1000.67,VALID,0,VALID,93.1958,VALID,0,VALID,22.1015,VALID,40,VALID,0,
2011-06-21, 01:37:05,VALID,1000.7,VALID,0,VALID,93.1882,VALID,0,VALID,22.121,VALID,40,VALID,0.230078,
2011-06-21, 01:38:05,VALID,1000.7,VALID,0,VALID,93.1958,VALID,0,VALID,22.121,VALID,40,VALID,0.401953,
2011-06-21, 01:39:05,VALID,1000.68,VALID,0,VALID,93.1729,VALID,0,VALID,22.1194,VALID,40,VALID,0.410547,
2011-06-21, 01:40:05,VALID,1000.66,VALID,0,VALID,93.1195,VALID,0,VALID,22.1389,VALID,40,VALID,0.400781,
2011-06-21, 01:41:05,VALID,1000.66,VALID,0,VALID,93.1119,VALID,0.112286,VALID,22.1795,VALID,40,VALID,0.373437,
2011-06-21, 01:42:05,VALID,1000.67,VALID,0,VALID,93.028,VALID,0,VALID,22.1779,VALID,40,VALID,0.168359,
2011-06-21, 01:43:05,VALID,1000.7,VALID,0,VALID,92.9822,VALID,0,VALID,22.2202,VALID,40,VALID,0.296094,
2011-06-21, 01:44:05,VALID,1000.69,VALID,0,VALID,92.9059,VALID,0,VALID,22.199,VALID,40,VALID,0.411328,
2011-06-21, 01:45:05,VALID,1000.69,VALID,0,VALID,92.8525,VALID,0,VALID,22.1974,VALID,40,VALID,0.376563,
2011-06-21, 01:46:05,VALID,1000.69,VALID,0,VALID,92.7914,VALID,0,VALID,22.2381,VALID,40,VALID,0.363281,
2011-06-21, 01:47:05,VALID,1000.7,VALID,0,VALID,92.7685,VALID,0.112286,VALID,22.2381,VALID,40,VALID,0.425,
2011-06-21, 01:48:05,VALID,1000.68,VALID,0,VALID,92.7228,VALID,0,VALID,22.2381,VALID,40,VALID,0.403516,
2011-06-21, 01:49:05,VALID,1000.69,VALID,0,VALID,92.7228,VALID,0,VALID,22.2381,VALID,40,VALID,0.2375,
2011-06-21, 01:50:05,VALID,1000.69,VALID,0,VALID,92.7457,VALID,0,VALID,22.1974,VALID,40,VALID,0.243359,
2011-06-21, 01:51:05,VALID,1000.67,VALID,0,VALID,92.7457,VALID,0,VALID,22.2186,VALID,40,VALID,0.284766,
2011-06-21, 01:52:05,VALID,1000.7,VALID,0,VALID,92.7533,VALID,0,VALID,22.2186,VALID,40,VALID,0.251953,
2011-06-21, 01:53:05,VALID,1000.67,VALID,0,VALID,92.7914,VALID,0,VALID,22.2186,VALID,40,VALID,0.239453,
2011-06-21, 01:54:05,VALID,1000.67,VALID,0,VALID,92.8067,VALID,0,VALID,22.2186,VALID,40,VALID,0.226953,
2011-06-21, 01:55:05,VALID,1000.68,VALID,0,VALID,92.8372,VALID,0,VALID,22.1795,VALID,40,VALID,0.164453,
2011-06-21, 01:56:05,VALID,1000.67,VALID,0,VALID,92.8601,VALID,0,VALID,22.1795,VALID,40,VALID,0.221094,
2011-06-21, 01:57:05,VALID,1000.68,VALID,0,VALID,92.883,VALID,0,VALID,22.16,VALID,40,VALID,0.297266,
2011-06-21, 01:58:05,VALID,1000.68,VALID,0,VALID,92.9211,VALID,0,VALID,22.16,VALID,40,VALID,0.205078,
2011-06-21, 01:59:05,VALID,1000.69,VALID,0,VALID,92.9288,VALID,0,VALID,22.16,VALID,40,VALID,0,
2011-06-21, 02:00:05,VALID,1000.69,VALID,0,VALID,92.944,VALID,0,VALID,22.16,VALID,40,VALID,0.140625,
2011-06-21, 02:01:05,VALID,1000.65,VALID,0,VALID,92.9745,VALID,0,VALID,22.1795,VALID,40,VALID,0,
2011-06-21, 02:02:05,VALID,1000.66,VALID,0,VALID,92.9898,VALID,0,VALID,22.1389,VALID,40,VALID,0,
2011-06-21, 02:03:05,VALID,1000.66,VALID,0,VALID,93.028,VALID,0,VALID,22.16,VALID,40,VALID,0.537109,
2011-06-21, 02:04:05,VALID,1000.66,VALID,0,VALID,93.0432,VALID,0,VALID,22.16,VALID,40,VALID,0.745703,
2011-06-21, 02:05:05,VALID,1000.62,VALID,0,VALID,93.0661,VALID,0,VALID,22.1405,VALID,40,VALID,1.13203,
2011-06-21, 02:06:05,VALID,1000.63,VALID,0,VALID,93.0661,VALID,0,VALID,22.0998,VALID,36,VALID,1.07344,
2011-06-21, 02:07:05,VALID,1000.62,VALID,0,VALID,93.0661,VALID,0.112286,VALID,22.1015,VALID,35,VALID,1.28711,
2011-06-21, 02:08:05,VALID,1000.62,VALID,0,VALID,93.0661,VALID,0,VALID,22.082,VALID,32,VALID,1.10273,
2011-06-21, 02:09:05,VALID,1000.59,VALID,0,VALID,93.0585,VALID,0,VALID,22.0625,VALID,30,VALID,1.12969,
2011-06-21, 02:10:05,VALID,1000.63,VALID,0,VALID,93.0432,VALID,0,VALID,22.0218,VALID,31,VALID,0.941406,
2011-06-21, 02:11:05,VALID,1000.63,VALID,0,VALID,93.0356,VALID,0,VALID,22.004,VALID,32,VALID,1.06562,
2011-06-21, 02:12:05,VALID,1000.63,VALID,0,VALID,93.0432,VALID,0,VALID,21.9633,VALID,28,VALID,0.877344,
2011-06-21, 02:13:05,VALID,1000.63,VALID,0,VALID,93.028,VALID,0,VALID,21.9438,VALID,28,VALID,1.16172,
2011-06-21, 02:14:05,VALID,1000.67,VALID,0,VALID,93.0432,VALID,0,VALID,21.965,VALID,28,VALID,1.17344,
2011-06-21, 02:15:05,VALID,1000.66,VALID,0,VALID,93.0432,VALID,0,VALID,21.9243,VALID,22,VALID,1.14961,
2011-06-21, 02:16:05,VALID,1000.66,VALID,0,VALID,93.0661,VALID,0,VALID,21.9048,VALID,23,VALID,1.29336,
2011-06-21, 02:17:05,VALID,1000.65,VALID,0,VALID,93.089,VALID,0,VALID,21.8853,VALID,24,VALID,1.10977,
2011-06-21, 02:18:05,VALID,1000.67,VALID,0,VALID,93.1119,VALID,0,VALID,21.8853,VALID,25,VALID,0.991406,
2011-06-21, 02:19:05,VALID,1000.67,VALID,0,VALID,93.1195,VALID,0,VALID,21.887,VALID,26,VALID,1.06953,
2011-06-21, 02:20:05,VALID,1000.65,VALID,0,VALID,93.1577,VALID,0,VALID,21.887,VALID,26,VALID,0.898438,
2011-06-21, 02:21:05,VALID,1000.66,VALID,0,VALID,93.1958,VALID,0,VALID,21.887,VALID,26,VALID,0.952344,
2011-06-21, 02:22:05,VALID,1000.66,VALID,0,VALID,93.2187,VALID,0,VALID,21.887,VALID,26,VALID,0.988281,
2011-06-21, 02:23:05,VALID,1000.64,VALID,0,VALID,93.2187,VALID,0,VALID,21.8675,VALID,26,VALID,0.945313,
2011-06-21, 02:24:05,VALID,1000.66,VALID,0,VALID,93.2492,VALID,0,VALID,21.8675,VALID,26,VALID,0.619531,
2011-06-21, 02:25:05,VALID,1000.66,VALID,0,VALID,93.2874,VALID,0,VALID,21.8463,VALID,26,VALID,0.491797,
2011-06-21, 02:26:05,VALID,1000.67,VALID,0,VALID,93.3103,VALID,0,VALID,21.887,VALID,26,VALID,0.240234,
2011-06-21, 02:27:05,VALID,1000.69,VALID,0,VALID,93.3179,VALID,0,VALID,21.8658,VALID,26,VALID,0,
2011-06-21, 02:28:05,VALID,1000.67,VALID,0,VALID,93.3179,VALID,0,VALID,21.887,VALID,26,VALID,0,
2011-06-21, 02:29:05,VALID,1000.63,VALID,0,VALID,93.3408,VALID,0,VALID,21.8658,VALID,26,VALID,0,
2011-06-21, 02:30:05,VALID,1000.64,VALID,0,VALID,93.3179,VALID,0,VALID,21.9065,VALID,26,VALID,0,
2011-06-21, 02:31:05,VALID,1000.65,VALID,0,VALID,93.3408,VALID,0,VALID,21.9065,VALID,26,VALID,0,
2011-06-21, 02:32:05,VALID,1000.67,VALID,0,VALID,93.3789,VALID,0,VALID,21.9065,VALID,26,VALID,0,
2011-06-21, 02:33:05,VALID,1000.66,VALID,0,VALID,93.3637,VALID,0.112286,VALID,21.887,VALID,26,VALID,0,
2011-06-21, 02:34:05,VALID,1000.66,VALID,0,VALID,93.3713,VALID,0,VALID,21.9065,VALID,26,VALID,0,
2011-06-21, 02:35:05,VALID,1000.63,VALID,0,VALID,93.3866,VALID,0,VALID,21.9277,VALID,26,VALID,0,
2011-06-21, 02:36:05,VALID,1000.62,VALID,0,VALID,93.3789,VALID,0,VALID,21.9065,VALID,26,VALID,0,
2011-06-21, 02:37:05,VALID,1000.64,VALID,0,VALID,93.4018,VALID,0,VALID,21.926,VALID,26,VALID,0,
2011-06-21, 02:38:05,VALID,1000.61,VALID,0,VALID,93.4171,VALID,0,VALID,21.926,VALID,26,VALID,0,
2011-06-21, 02:39:05,VALID,1000.62,VALID,0,VALID,93.44,VALID,0,VALID,21.926,VALID,26,VALID,0.0742188,
2011-06-21, 02:40:05,VALID,1000.61,VALID,0,VALID,93.4094,VALID,0,VALID,21.9455,VALID,26,VALID,0.419141,
2011-06-21, 02:41:05,VALID,1000.59,VALID,0,VALID,93.4171,VALID,0,VALID,21.965,VALID,26,VALID,0.427734,
2011-06-21, 02:42:05,VALID,1000.59,VALID,0,VALID,93.4476,VALID,0,VALID,21.9845,VALID,26,VALID,0.329297,
2011-06-21, 02:43:05,VALID,1000.58,VALID,0,VALID,93.4247,VALID,0,VALID,22.004,VALID,26,VALID,0.541016,
2011-06-21, 02:44:05,VALID,1000.58,VALID,0,VALID,93.4476,VALID,0,VALID,22.0235,VALID,26,VALID,0.553516,
2011-06-21, 02:45:05,VALID,1000.56,VALID,0,VALID,93.44,VALID,0,VALID,22.0235,VALID,26,VALID,0.562109,
2011-06-21, 02:46:05,VALID,1000.6,VALID,0,VALID,93.4323,VALID,0,VALID,22.0235,VALID,26,VALID,0.634375,
2011-06-21, 02:47:05,VALID,1000.58,VALID,0,VALID,93.4323,VALID,0,VALID,22.0235,VALID,26,VALID,0.5,
2011-06-21, 02:48:05,VALID,1000.6,VALID,0,VALID,93.3942,VALID,0,VALID,22.0235,VALID,26,VALID,0.409766,
2011-06-21, 02:49:05,VALID,1000.61,VALID,0,VALID,93.4247,VALID,0,VALID,22.0235,VALID,26,VALID,0.305859,
2011-06-21, 02:50:05,VALID,1000.59,VALID,0,VALID,93.4323,VALID,0,VALID,22.0235,VALID,26,VALID,0.225391,
2011-06-21, 02:51:05,VALID,1000.58,VALID,0,VALID,93.4094,VALID,0,VALID,22.0235,VALID,26,VALID,0,
2011-06-21, 02:52:05,VALID,1000.57,VALID,0,VALID,93.3942,VALID,0,VALID,22.004,VALID,26,VALID,0,
2011-06-21, 02:53:05,VALID,1000.57,VALID,0,VALID,93.3942,VALID,0,VALID,22.004,VALID,26,VALID,0,
2011-06-21, 02:54:05,VALID,1000.56,VALID,0,VALID,93.4247,VALID,0,VALID,21.9845,VALID,26,VALID,0.442578,
2011-06-21, 02:55:05,VALID,1000.53,VALID,0,VALID,93.4171,VALID,0,VALID,21.9845,VALID,26,VALID,0.465234,
2011-06-21, 02:56:05,VALID,1000.54,VALID,0,VALID,93.4323,VALID,0,VALID,21.9845,VALID,26,VALID,0.499609,
2011-06-21, 02:57:05,VALID,1000.55,VALID,0,VALID,93.4476,VALID,0,VALID,21.9845,VALID,26,VALID,0.388281,
2011-06-21, 02:58:05,VALID,1000.51,VALID,0,VALID,93.44,VALID,0,VALID,21.9845,VALID,26,VALID,0.239844,
2011-06-21, 02:59:05,VALID,1000.49,VALID,0,VALID,93.4476,VALID,0,VALID,21.9845,VALID,26,VALID,0.392188,
2011-06-21, 03:00:05,VALID,1000.5,VALID,0,VALID,93.4628,VALID,0,VALID,22.004,VALID,26,VALID,0.65,
2011-06-21, 03:01:05,VALID,1000.46,VALID,0,VALID,93.4857,VALID,0,VALID,22.004,VALID,26,VALID,0.826172,
2011-06-21, 03:02:05,VALID,1000.42,VALID,0,VALID,93.4781,VALID,0,VALID,22.004,VALID,26,VALID,0.757031,
2011-06-21, 03:03:05,VALID,1000.42,VALID,0,VALID,93.5086,VALID,0,VALID,22.004,VALID,26,VALID,0.429688,
2011-06-21, 03:04:05,VALID,1000.39,VALID,0,VALID,93.5163,VALID,0,VALID,22.004,VALID,26,VALID,0.00585938,
2011-06-21, 03:05:05,VALID,1000.37,VALID,0,VALID,93.5163,VALID,0,VALID,22.004,VALID,26,VALID,0,
2011-06-21, 03:06:05,VALID,1000.35,VALID,0,VALID,93.5315,VALID,0,VALID,22.0235,VALID,26,VALID,0,
2011-06-21, 03:07:05,VALID,1000.36,VALID,0,VALID,93.5391,VALID,0,VALID,22.0023,VALID,26,VALID,0,
2011-06-21, 03:08:05,VALID,1000.35,VALID,0,VALID,93.5239,VALID,0.112286,VALID,22.0235,VALID,26,VALID,0,
2011-06-21, 03:09:05,VALID,1000.33,VALID,0,VALID,93.5544,VALID,0,VALID,22.0235,VALID,26,VALID,0,
2011-06-21, 03:10:05,VALID,1000.32,VALID,0,VALID,93.562,VALID,0,VALID,22.0235,VALID,26,VALID,0,
2011-06-21, 03:11:05,VALID,1000.31,VALID,0,VALID,93.562,VALID,0,VALID,22.0235,VALID,26,VALID,0,
2011-06-21, 03:12:05,VALID,1000.32,VALID,0,VALID,93.5773,VALID,0,VALID,22.0235,VALID,26,VALID,0,
2011-06-21, 03:13:05,VALID,1000.32,VALID,0,VALID,93.5697,VALID,0,VALID,22.0235,VALID,26,VALID,0,
2011-06-21, 03:14:05,VALID,1000.31,VALID,0,VALID,93.5773,VALID,0,VALID,22.0235,VALID,26,VALID,0,
2011-06-21, 03:15:05,VALID,1000.33,VALID,0,VALID,93.5773,VALID,0,VALID,22.0235,VALID,26,VALID,0,
2011-06-21, 03:16:05,VALID,1000.3,VALID,0,VALID,93.6002,VALID,0,VALID,22.043,VALID,26,VALID,0,
2011-06-21, 03:17:05,VALID,1000.27,VALID,0,VALID,93.5773,VALID,0,VALID,22.0413,VALID,26,VALID,0,
2011-06-21, 03:18:05,VALID,1000.26,VALID,0,VALID,93.6154,VALID,0,VALID,22.0625,VALID,26,VALID,0,
2011-06-21, 03:19:05,VALID,1000.27,VALID,0,VALID,93.6002,VALID,0,VALID,22.0625,VALID,26,VALID,0,
2011-06-21, 03:20:05,VALID,1000.27,VALID,0,VALID,93.6154,VALID,0,VALID,22.0625,VALID,26,VALID,0,
2011-06-21, 03:21:05,VALID,1000.26,VALID,0,VALID,93.6231,VALID,0,VALID,22.0625,VALID,26,VALID,0,
2011-06-21, 03:22:05,VALID,1000.29,VALID,0,VALID,93.6231,VALID,0,VALID,22.0625,VALID,26,VALID,0,
2011-06-21, 03:23:05,VALID,1000.25,VALID,0,VALID,93.6307,VALID,0,VALID,22.043,VALID,26,VALID,0,
2011-06-21, 03:24:05,VALID,1000.26,VALID,0,VALID,93.6154,VALID,0,VALID,22.043,VALID,26,VALID,0,
2011-06-21, 03:25:05,VALID,1000.25,VALID,0,VALID,93.6307,VALID,0,VALID,22.043,VALID,26,VALID,0,
2011-06-21, 03:26:05,VALID,1000.28,VALID,0,VALID,93.6307,VALID,0,VALID,22.0625,VALID,26,VALID,0,
2011-06-21, 03:27:05,VALID,1000.24,VALID,0,VALID,93.6231,VALID,0,VALID,22.0625,VALID,26,VALID,0,
2011-06-21, 03:28:05,VALID,1000.24,VALID,0,VALID,93.6383,VALID,0,VALID,22.0625,VALID,26,VALID,0,
2011-06-21, 03:29:05,VALID,1000.25,VALID,0,VALID,93.646,VALID,0,VALID,22.0608,VALID,26,VALID,0,
2011-06-21, 03:30:05,VALID,1000.21,VALID,0,VALID,93.6231,VALID,0,VALID,22.082,VALID,26,VALID,0,
2011-06-21, 03:31:05,VALID,1000.24,VALID,0,VALID,93.6536,VALID,0,VALID,22.082,VALID,26,VALID,0,
2011-06-21, 03:32:05,VALID,1000.22,VALID,0,VALID,93.6536,VALID,0,VALID,22.0625,VALID,26,VALID,0,
2011-06-21, 03:33:05,VALID,1000.24,VALID,0,VALID,93.6765,VALID,0,VALID,22.082,VALID,26,VALID,0,
2011-06-21, 03:34:05,VALID,1000.22,VALID,0,VALID,93.6612,VALID,0,VALID,22.0625,VALID,26,VALID,0,
2011-06-21, 03:35:05,VALID,1000.23,VALID,0,VALID,93.6612,VALID,0.112286,VALID,22.0413,VALID,26,VALID,0,
2011-06-21, 03:36:05,VALID,1000.21,VALID,0,VALID,93.6536,VALID,0,VALID,22.0625,VALID,26,VALID,0,
2011-06-21, 03:37:05,VALID,1000.21,VALID,0,VALID,93.6612,VALID,0,VALID,22.0625,VALID,26,VALID,0,
2011-06-21, 03:38:05,VALID,1000.22,VALID,0,VALID,93.6612,VALID,0,VALID,22.0625,VALID,26,VALID,0,
2011-06-21, 03:39:05,VALID,1000.19,VALID,0,VALID,93.6688,VALID,0,VALID,22.082,VALID,26,VALID,0,
2011-06-21, 03:40:05,VALID,1000.18,VALID,0,VALID,93.6612,VALID,0,VALID,22.082,VALID,26,VALID,0,
2011-06-21, 03:41:05,VALID,1000.23,VALID,0,VALID,93.6612,VALID,0,VALID,22.082,VALID,26,VALID,0,
2011-06-21, 03:42:05,VALID,1000.19,VALID,0,VALID,93.6841,VALID,0,VALID,22.082,VALID,26,VALID,0,
2011-06-21, 03:43:05,VALID,1000.21,VALID,0,VALID,93.6688,VALID,0,VALID,22.0803,VALID,26,VALID,0,
2011-06-21, 03:44:05,VALID,1000.21,VALID,0,VALID,93.6688,VALID,0,VALID,22.0803,VALID,26,VALID,0,
2011-06-21, 03:45:05,VALID,1000.2,VALID,0,VALID,93.6612,VALID,0,VALID,22.082,VALID,26,VALID,0,
2011-06-21, 03:46:05,VALID,1000.2,VALID,0,VALID,93.6688,VALID,0.112286,VALID,22.1015,VALID,26,VALID,0.739062,
2011-06-21, 03:47:05,VALID,1000.19,VALID,0,VALID,93.6612,VALID,0,VALID,22.121,VALID,26,VALID,0.848437,
2011-06-21, 03:48:05,VALID,1000.18,VALID,0,VALID,93.6765,VALID,0,VALID,22.1015,VALID,26,VALID,0.789063,
2011-06-21, 03:49:05,VALID,1000.15,VALID,0,VALID,93.6536,VALID,0,VALID,22.1015,VALID,26,VALID,0.776953,
2011-06-21, 03:50:05,VALID,1000.16,VALID,0,VALID,93.6383,VALID,0,VALID,22.1015,VALID,26,VALID,0.653125,
2011-06-21, 03:51:05,VALID,1000.14,VALID,0,VALID,93.646,VALID,0,VALID,22.1015,VALID,26,VALID,0.643359,
2011-06-21, 03:52:04,VALID,1000.18,VALID,0,VALID,93.6307,VALID,0,VALID,22.0608,VALID,26,VALID,0.246484,
2011-06-21, 03:53:04,VALID,1000.2,VALID,0,VALID,93.6383,VALID,0,VALID,22.1015,VALID,26,VALID,0,